Hourly Weather Orange Walk

Today, 20 September, Sunday

Time Temperature Precipitation Wind Pressure Humidity
00:00 +24°C° 0 mm 0 mps 756 mmHg 95%
01:00 +24°C° 0 mm 0 mps 756 mmHg 96%
02:00 +24°C° 0 mm 0 mps 756 mmHg 96%
03:00 +24°C° 0 mm 0 mps 755 mmHg 97%
04:00 +24°C° 0 mm 0 mps 756 mmHg 97%
05:00 +24°C° 0 mm 0 mps 756 mmHg 97%
06:00 +24°C° 0 mm 0 mps 756 mmHg 97%
07:00 +26°C° 0 mm 0 mps 756 mmHg 90%
08:00 +28°C° 0 mm 0 mps 757 mmHg 83%
09:00 +30°C° 0 mm 0 mps 757 mmHg 76%
10:00 +32°C° 0.8 mm 1 mps 757 mmHg 75%
11:00 +32°C° 0.8 mm 1 mps 757 mmHg 73%
12:00 +32°C° 0.8 mm 2 mps 756 mmHg 72%
13:00 +34°C° 0.6 mm 2 mps 756 mmHg 70%
14:00 +34°C° 0.6 mm 2 mps 755 mmHg 68%
15:00 +34°C° 0.6 mm 2 mps 755 mmHg 66%
16:00 +32°C° 0 mm 2 mps 755 mmHg 72%
17:00 +30°C° 0 mm 2 mps 755 mmHg 79%
18:00 +28°C° 0 mm 2 mps 755 mmHg 85%
19:00 +28°C° 0.1 mm 2 mps 756 mmHg 88%
20:00 +27°C° 0.1 mm 1 mps 757 mmHg 90%
21:00 +27°C° 0.1 mm 1 mps 757 mmHg 93%
22:00 +26°C° 0.1 mm 1 mps 757 mmHg 94%
23:00 +24°C° 0.1 mm 0 mps 757 mmHg 94%

Tomorrow, 21 September, Monday

Time Temperature Precipitation Wind Pressure Humidity
00:00 +24°C° 0.1 mm 0 mps 757 mmHg 95%
01:00 +24°C° 0 mm 0 mps 757 mmHg 96%
02:00 +23°C° 0 mm 0 mps 756 mmHg 96%
03:00 +23°C° 0 mm 0 mps 756 mmHg 97%
04:00 +23°C° 0 mm 0 mps 756 mmHg 97%
05:00 +23°C° 0 mm 0 mps 756 mmHg 97%
06:00 +23°C° 0 mm 0 mps 756 mmHg 98%
07:00 +25°C° 0 mm 0 mps 757 mmHg 89%
08:00 +29°C° 0 mm 1 mps 757 mmHg 80%
09:00 +31°C° 0 mm 1 mps 758 mmHg 71%
10:00 +32°C° 0 mm 1 mps 757 mmHg 67%
11:00 +33°C° 0 mm 1 mps 757 mmHg 62%
12:00 +34°C° 0 mm 1 mps 757 mmHg 58%
13:00 +34°C° 0.2 mm 1 mps 756 mmHg 58%
14:00 +34°C° 0.2 mm 1 mps 755 mmHg 59%
15:00 +34°C° 0.2 mm 1 mps 755 mmHg 59%
16:00 +32°C° 0 mm 1 mps 755 mmHg 66%
17:00 +30°C° 0 mm 1 mps 755 mmHg 72%
18:00 +29°C° 0 mm 1 mps 755 mmHg 78%
19:00 +28°C° 0 mm 1 mps 756 mmHg 80%
20:00 +27°C° 0 mm 1 mps 757 mmHg 82%
21:00 +27°C° 0 mm 1 mps 757 mmHg 84%
22:00 +26°C° 0 mm 1 mps 757 mmHg 85%
23:00 +26°C° 0 mm 1 mps 757 mmHg 87%

Day after tomorrow, 22 September, Tuesday

Time Temperature Precipitation Wind Pressure Humidity
00:00 +26°C° 0 mm 1 mps 757 mmHg 89%
01:00 +25°C° 0 mm 1 mps 757 mmHg 90%
02:00 +25°C° 0 mm 1 mps 756 mmHg 91%
03:00 +25°C° 0 mm 1 mps 756 mmHg 93%
04:00 +25°C° 0 mm 1 mps 756 mmHg 93%
05:00 +25°C° 0 mm 1 mps 757 mmHg 93%
06:00 +23°C° 0 mm 0 mps 757 mmHg 93%
07:00 +25°C° 0 mm 0 mps 757 mmHg 85%
08:00 +27°C° 0 mm 0 mps 758 mmHg 77%
09:00 +30°C° 0 mm 0 mps 758 mmHg 68%
10:00 +33°C° 0 mm 1 mps 758 mmHg 65%
11:00 +34°C° 0 mm 1 mps 757 mmHg 61%
12:00 +34°C° 0 mm 1 mps 757 mmHg 57%
13:00 +34°C° 0.6 mm 1 mps 756 mmHg 59%
14:00 +34°C° 0.6 mm 1 mps 755 mmHg 62%
15:00 +34°C° 0.6 mm 1 mps 754 mmHg 64%
16:00 +32°C° 0.3 mm 1 mps 755 mmHg 72%
17:00 +30°C° 0.3 mm 1 mps 755 mmHg 80%
18:00 +28°C° 0.3 mm 2 mps 755 mmHg 88%
19:00 +28°C° 0.1 mm 1 mps 755 mmHg 90%
20:00 +27°C° 0.1 mm 1 mps 756 mmHg 92%
21:00 +27°C° 0.1 mm 1 mps 757 mmHg 93%
22:00 +26°C° 0.2 mm 1 mps 757 mmHg 94%
23:00 +26°C° 0.2 mm 1 mps 757 mmHg 95%

23 September, Wednesday

Time Temperature Precipitation Wind Pressure Humidity
00:00 +24°C° 0.2 mm 0 mps 757 mmHg 96%
01:00 +24°C° 0.3 mm 0 mps 756 mmHg 96%
02:00 +24°C° 0.3 mm 0 mps 756 mmHg 97%
03:00 +23°C° 0.3 mm 0 mps 756 mmHg 97%
04:00 +23°C° 0 mm 0 mps 756 mmHg 97%
05:00 +23°C° 0 mm 0 mps 756 mmHg 97%
06:00 +23°C° 0 mm 0 mps 756 mmHg 97%
07:00 +25°C° 0 mm 0 mps 757 mmHg 90%
08:00 +27°C° 0 mm 0 mps 757 mmHg 82%
09:00 +30°C° 0 mm 0 mps 757 mmHg 74%
10:00 +31°C° 0 mm 0 mps 757 mmHg 67%
11:00 +34°C° 0 mm 1 mps 757 mmHg 60%
12:00 +35°C° 0 mm 1 mps 756 mmHg 53%
13:00 +35°C° 0 mm 1 mps 755 mmHg 54%
14:00 +35°C° 0 mm 1 mps 755 mmHg 54%
15:00 +34°C° 0 mm 1 mps 754 mmHg 54%
16:00 +33°C° 0 mm 1 mps 754 mmHg 62%
17:00 +31°C° 0 mm 2 mps 754 mmHg 70%
18:00 +29°C° 0 mm 2 mps 755 mmHg 78%
19:00 +28°C° 0 mm 2 mps 755 mmHg 80%
20:00 +27°C° 0 mm 1 mps 756 mmHg 83%
21:00 +27°C° 0 mm 1 mps 756 mmHg 85%
22:00 +26°C° 0 mm 1 mps 756 mmHg 87%
23:00 +26°C° 0 mm 1 mps 756 mmHg 89%

24 September, Thursday

Time Temperature Precipitation Wind Pressure Humidity
00:00 +24°C° 0 mm 0 mps 756 mmHg 91%
01:00 +24°C° 0 mm 0 mps 756 mmHg 92%
02:00 +23°C° 0 mm 0 mps 755 mmHg 93%
03:00 +25°C° 0 mm 1 mps 755 mmHg 94%
04:00 +23°C° 0 mm 0 mps 755 mmHg 94%
05:00 +23°C° 0 mm 0 mps 755 mmHg 94%
06:00 +23°C° 0 mm 0 mps 756 mmHg 95%
07:00 +25°C° 0 mm 0 mps 756 mmHg 85%
08:00 +29°C° 0 mm 1 mps 756 mmHg 76%
09:00 +31°C° 0 mm 1 mps 757 mmHg 67%
10:00 +33°C° 0 mm 1 mps 756 mmHg 63%
11:00 +34°C° 0 mm 1 mps 756 mmHg 59%
12:00 +35°C° 0 mm 1 mps 756 mmHg 55%
13:00 +35°C° 0 mm 1 mps 755 mmHg 56%
14:00 +34°C° 0 mm 1 mps 754 mmHg 57%
15:00 +35°C° 0 mm 2 mps 754 mmHg 59%
16:00 +32°C° 0 mm 2 mps 754 mmHg 66%
17:00 +30°C° 0 mm 2 mps 754 mmHg 72%
18:00 +28°C° 0 mm 2 mps 754 mmHg 79%
19:00 +28°C° 0 mm 2 mps 755 mmHg 81%
20:00 +27°C° 0 mm 2 mps 756 mmHg 83%
21:00 +26°C° 0 mm 1 mps 756 mmHg 85%
22:00 +26°C° 0 mm 1 mps 756 mmHg 87%
23:00 +26°C° 0 mm 1 mps 756 mmHg 89%

25 September, Friday

Time Temperature Precipitation Wind Pressure Humidity
00:00 +26°C° 0 mm 1 mps 756 mmHg 91%
01:00 +25°C° 0 mm 1 mps 756 mmHg 92%
02:00 +23°C° 0 mm 0 mps 756 mmHg 93%
03:00 +23°C° 0 mm 0 mps 756 mmHg 94%
04:00 +23°C° 0 mm 0 mps 756 mmHg 95%
05:00 +23°C° 0 mm 0 mps 756 mmHg 95%
06:00 +23°C° 0 mm 0 mps 757 mmHg 95%
07:00 +25°C° 0 mm 0 mps 757 mmHg 87%
08:00 +28°C° 0 mm 0 mps 757 mmHg 78%
09:00 +30°C° 0 mm 0 mps 757 mmHg 69%
10:00 +33°C° 0 mm 1 mps 757 mmHg 64%
11:00 +34°C° 0 mm 1 mps 756 mmHg 58%
12:00 +36°C° 0 mm 1 mps 756 mmHg 53%
13:00 +36°C° 1.1 mm 2 mps 755 mmHg 59%
14:00 +35°C° 1.1 mm 2 mps 755 mmHg 66%
15:00 +34°C° 1.1 mm 2 mps 754 mmHg 72%
16:00 +31°C° 0 mm 2 mps 754 mmHg 75%
17:00 +30°C° 0 mm 2 mps 755 mmHg 79%
18:00 +29°C° 0 mm 2 mps 755 mmHg 82%
19:00 +28°C° 0 mm 2 mps 756 mmHg 85%
20:00 +28°C° 0 mm 2 mps 756 mmHg 87%
21:00 +28°C° 0 mm 1 mps 757 mmHg 89%
22:00 +28°C° 0 mm 1 mps 757 mmHg 90%
23:00 +28°C° 0 mm 1 mps 757 mmHg 90%
Show more